Temperature
17 14 14 15 16 17 19 19 19 19 20 21 21 20 20 22 21 21 21 21 22 22 25 24 23 23 22 22 22 21 21 21 20 20 19 18 18 17 17 17 17 16 16 16
15 15 16 17 17 18 18 19 19 19 20 21 21 20 20 20 21 22 22 22 22 22 23 22 23 22 22 22 22 21 21 20 20 20 19 18 18 17 17 17 16 16 16 15
16 17 17 17 18 18 18 18 19 19 18 19 20 19 19 20 21 23 23 23 23 23 23 23 23 22 22 22 22 21 21 20 20 19 19 18 17 17 16 16 15 15 15 14
16 17 18 18 18 18 18 18 19 19 19 17 19 18 19 19 18 19 21 22 22 23 23 23 23 22 22 22 21 20 20 19 19 19 18 18 17 16 15 15 14 14 14 14
17 17 18 18 18 18 18 19 19 19 18 17 17 17 17 17 19 19 18 19 20 22 23 23 22 21 21 20 20 19 19 18 18 18 18 17 17 16 15 14 13 13 13 13
18 18 18 19 19 19 19 19 17 14 15 16 17 16 17 16 17 17 17 16 17 19 20 20 19 19 19 18 18 18 17 17 16 16 16 16 15 15 14 13 13 12 12 12
19 19 19 20 20 20 19 17 15 16 15 15 17 17 16 17 17 16 15 15 15 16 17 17 17 17 17 16 16 16 16 16 16 15 15 15 14 14 13 13 12 12 11 11
17 17 19 19 19 18 17 16 16 16 16 16 17 17 16 17 16 16 15 15 15 15 15 15 15 15 15 15 15 15 15 15 15 15 15 14 13 13 12 11 11 10 10 9
16 17 19 19 19 19 17 16 17 15 16 16 16 16 16 16 16 16 15 14 14 14 14 14 14 14 15 15 15 15 15 15 15 15 14 13 12 12 11 10 10 9 9 8
17 17 19 20 20 19 18 16 13 14 15 16 17 16 15 16 16 15 15 14 14 14 14 14 14 14 14 14 14 14 14 14 14 13 12 12 11 11 10 9 8 8 7 7
16 17 18 19 19 19 18 17 15 13 14 15 16 15 15 15 15 15 14 13 13 13 13 13 13 13 14 13 13 13 13 13 12 12 11 11 10 9 9 8 8 7 7 7
15 15 16 18 19 18 18 17 14 16 15 14 15 14 14 14 14 14 13 12 12 12 12 12 13 13 13 13 12 12 12 11 11 10 10 9 9 8 8 7 7 6 6 6
15 14 16 17 17 17 18 17 15 13 13 13 14 14 14 14 14 13 12 12 12 12 12 12 12 12 12 12 11 11 10 10 10 9 9 8 8 7 7 6 6 6 5 5
14 13 14 15 15 16 17 17 17 15 14 14 15 14 14 14 13 12 11 11 11 11 11 11 11 11 11 10 10 9 9 9 8 8 8 7 7 6 6 6 5 5 5 5
13 14 14 15 16 16 15 15 16 16 15 15 14 14 13 13 13 12 11 11 10 10 10 10 10 10 9 9 9 8 8 8 7 7 7 6 6 5 5 5 5 5 4 4
11 13 14 15 15 15 15 14 15 14 14 14 14 13 12 12 12 11 11 11 10 10 9 9 9 9 9 8 8 8 7 7 7 6 6 5 5 5 5 4 4 4 4 4
10 12 12 13 14 14 13 13 13 13 12 13 13 12 11 11 11 10 10 10 10 10 9 9 9 8 8 8 7 7 7 6 6 5 5 5 5 4 4 4 4 3 3 3
10 11 10 11 13 12 13 13 13 12 11 11 11 10 10 9 8 9 10 10 10 9 9 9 8 8 7 7 6 6 6 5 5 5 4 4 4 4 4 3 3 3 2 2
9 10 10 10 12 12 13 13 12 12 11 11 10 9 8 8 9 8 9 9 9 9 9 8 7 7 6 6 5 5 5 5 4 4 4 4 4 4 3 3 3 2 2 1
8 8 9 10 11 11 12 13 13 12 11 11 10 9 8 9 9 8 8 8 8 8 7 7 6 6 5 5 4 4 4 4 4 4 4 4 3 3 3 2 2 1 1 1
8 8 8 9 10 11 11 11 12 11 11 11 10 10 9 8 8 7 7 7 7 7 6 6 5 5 4 4 4 4 4 4 4 4 4 3 3 3 2 2 1 1 0 0
8 8 8 8 9 10 10 11 10 10 10 11 11 10 10 8 7 6 6 6 6 5 5 5 4 4 4 4 4 4 4 4 4 4 4 3 3 2 2 1 1 1 0 -0
7 7 7 8 8 9 9 9 10 10 11 11 11 11 10 8 6 5 5 5 5 5 4 4 4 4 4 4 4 4 4 4 4 4 3 3 2 2 2 1 1 0 0 -0
7 7 7 8 8 9 9 10 10 10 11 11 11 11 10 8 6 5 5 5 4 4 4 4 4 4 4 4 4 4 4 4 4 4 3 3 2 2 1 1 1 0 -0 -1
7 7 7 7 8 9 9 9 9 10 10 10 10 10 9 8 6 5 5 4 4 4 4 4 4 4 4 4 4 4 4 4 4 3 3 2 2 2 2 1 1 0 -0 -1
5 6 6 6 7 6 8 8 8 9 9 9 9 8 7 7 6 5 5 5 5 5 5 5 5 4 4 4 4 4 4 3 3 3 3 2 2 2 2 1 1 0 -0 -0
Wind_Speed
6 5 6 9 10 8 4 2 3 6 5 3 6 9 10 5 6 10 11 14 17 23 22 14 13 13 13 13 13 13 12 11 11 8 7 5 4 3 4 5 10 12 14 15
5 5 10 9 7 5 4 3 4 7 4 2 6 10 11 6 6 9 12 16 19 20 15 13 13 13 15 15 14 13 13 11 10 8 5 4 6 6 5 5 10 13 15 15
8 7 7 7 6 6 6 5 5 6 7 6 4 10 10 7 2 6 8 11 14 18 18 16 15 15 13 14 15 13 12 10 10 10 9 8 7 5 4 6 6 8 14 14
7 7 5 5 7 8 6 7 6 3 2 5 2 5 10 8 9 6 6 7 10 12 14 14 13 11 11 10 9 10 10 10 10 11 11 11 7 5 4 4 6 8 11 13
8 7 8 8 8 9 8 5 5 4 4 3 2 3 10 7 8 10 10 9 9 9 8 8 6 6 6 8 9 9 10 10 9 8 9 9 9 7 8 7 8 8 7 10
7 5 8 9 8 8 5 5 6 5 5 2 6 6 7 4 6 11 12 12 10 5 3 7 9 11 11 11 11 11 12 11 10 9 7 8 12 13 12 10 8 7 6 5
5 4 4 5 2 2 5 5 4 4 2 7 4 5 6 4 6 7 10 11 9 9 11 13 13 13 12 12 12 12 13 12 10 10 8 8 10 11 11 9 8 8 6 5
7 8 7 8 9 8 7 10 8 6 6 6 1 6 2 4 6 7 8 9 11 13 13 13 13 12 12 12 12 11 12 11 10 11 11 9 9 8 7 8 7 7 6 5
9 8 7 8 9 11 8 8 9 8 4 2 5 2 0 4 6 8 10 11 12 12 13 13 13 13 12 12 12 11 11 10 11 12 12 12 10 9 9 8 7 6 6 5
9 6 5 3 4 2 6 8 7 8 8 6 4 3 3 2 3 6 8 10 10 11 12 13 12 13 12 13 13 13 13 13 12 11 10 10 10 9 10 9 9 7 6 6
5 6 4 3 2 2 4 4 5 5 5 8 5 5 1 3 2 6 7 8 9 10 11 11 12 12 13 13 13 13 13 13 12 11 11 11 10 10 10 10 9 8 8 7
3 4 2 3 1 1 5 4 6 5 4 4 5 4 4 1 6 9 9 8 9 10 10 11 11 12 11 12 12 12 11 12 11 11 11 11 11 11 11 10 9 9 9 7
3 4 3 3 4 7 5 3 4 5 5 4 4 2 2 6 9 9 9 9 8 9 10 10 10 10 10 10 10 11 10 11 11 11 12 12 11 11 11 10 8 8 8 7
3 5 4 4 2 2 4 5 2 4 4 3 3 5 3 5 7 7 8 8 7 8 8 9 9 8 8 9 9 10 10 10 10 11 12 11 10 10 9 8 8 7 6 6
5 4 4 4 5 5 6 8 6 2 4 5 6 7 6 5 6 6 7 7 7 7 7 8 8 7 8 8 8 9 9 9 10 12 12 10 9 9 8 8 7 7 6 6
6 3 2 4 6 6 5 10 8 5 3 3 7 5 3 5 7 7 6 6 5 5 6 7 8 7 7 7 8 9 9 9 11 11 10 9 8 8 8 7 7 7 7 6
4 3 2 0 2 4 3 5 4 3 3 1 3 4 6 6 7 5 3 3 4 5 6 7 7 7 7 7 8 9 9 9 10 10 8 8 7 7 7 6 6 6 5 5
0 2 2 1 2 4 4 2 3 4 4 4 6 6 7 9 7 6 5 3 5 6 7 8 8 8 7 7 8 8 8 9 9 8 7 6 6 7 6 6 6 5 4 4
1 4 3 2 3 1 1 1 1 1 2 2 5 8 7 7 5 5 7 6 6 7 8 8 8 8 7 7 7 8 8 7 7 6 5 5 6 6 6 5 4 3 3 3
6 4 4 3 3 4 3 4 2 4 1 2 4 7 6 3 2 1 5 8 10 10 9 9 8 9 8 6 6 8 7 6 6 5 5 5 6 6 5 5 3 3 3 3
6 6 4 2 1 2 3 6 1 1 5 4 6 6 6 2 2 6 8 8 9 10 9 9 9 8 7 6 6 7 6 4 3 4 6 6 6 6 5 4 3 3 3 3
1 2 2 1 0 3 6 5 0 3 1 3 4 4 6 8 10 9 9 9 9 10 9 9 9 7 5 5 6 6 4 2 4 6 6 6 5 4 4 5 4 3 3 3
1 3 3 4 5 4 4 3 3 1 3 2 3 5 10 11 9 9 9 9 9 9 8 7 8 7 5 4 4 4 2 3 5 6 6 5 5 4 3 3 3 2 2 2
3 1 1 2 3 3 3 3 5 4 2 1 3 7 9 10 12 11 10 9 8 8 7 6 7 6 4 3 3 2 2 4 6 6 5 4 4 3 2 1 1 1 0 0
4 2 1 3 4 4 3 5 5 4 3 4 5 6 9 12 13 12 11 9 8 7 5 5 6 5 4 3 4 3 3 5 6 5 4 3 2 2 1 1 2 2 3 3
3 3 3 4 3 2 5 5 5 3 1 3 7 8 9 11 13 12 10 8 7 7 5 6 5 5 4 4 4 3 3 5 6 4 3 2 2 2 1 1 2 3 4 5
Wind_Direction
131 116 186 194 183 189 196 202 270 273 286 319 298 293 291 276 231 231 226 221 220 223 225 213 206 199 192 190 188 188 188 178 169 165 160 149 130 94 77 85 102 106 107 106
86 222 215 192 180 178 194 229 274 292 336 330 307 297 288 267 228 230 227 224 226 231 228 214 206 201 198 195 190 186 188 178 172 164 137 109 99 86 79 85 90 101 105 106
172 223 192 161 161 176 196 200 231 265 337 350 312 311 304 300 277 265 252 241 235 229 225 217 209 206 198 195 189 186 178 167 155 134 117 108 92 81 80 94 95 99 105 105
203 234 165 166 190 174 234 223 208 228 355 299 20 299 294 300 320 300 292 282 260 243 230 221 211 202 195 188 167 158 149 143 137 135 140 140 134 133 136 126 117 111 109 111
217 199 180 198 210 178 213 210 192 205 192 272 278 195 281 331 323 317 330 331 303 275 240 220 197 166 136 125 124 121 116 111 111 114 124 122 120 122 128 124 121 110 104 111
217 206 183 203 218 193 180 72 48 55 96 230 229 175 269 320 315 320 336 347 334 325 53 82 87 97 98 98 101 104 104 98 96 98 106 126 133 138 140 136 127 115 109 104
256 263 224 174 142 144 136 110 19 352 31 237 227 181 244 328 357 350 352 5 21 55 77 86 89 92 95 95 97 100 103 103 103 102 99 115 129 136 137 134 130 128 120 110
209 262 233 194 192 205 185 152 167 200 215 258 228 211 222 38 47 45 48 50 58 69 77 82 85 88 89 89 90 95 101 106 105 105 104 105 111 116 119 120 125 123 121 117
190 236 256 220 200 175 168 189 185 161 176 224 264 249 38 58 60 59 60 62 65 71 75 77 76 77 79 80 81 87 95 94 94 100 107 108 107 111 112 110 106 103 106 109
175 225 280 258 113 144 165 153 112 141 159 213 255 228 230 326 54 67 66 68 70 72 74 74 74 75 75 77 77 77 83 87 87 90 95 102 102 106 109 107 102 99 92 89
166 189 284 25 110 190 111 117 130 139 163 166 215 248 244 261 157 106 84 74 73 73 75 76 76 76 78 79 80 83 85 88 88 89 91 93 93 94 96 96 95 93 89 90
24 143 225 244 281 45 120 143 148 155 199 177 175 228 328 150 123 111 96 79 72 72 73 77 80 82 82 83 84 85 87 90 92 95 94 92 91 91 90 90 90 92 91 92
10 84 87 31 2 9 43 54 119 120 113 136 157 217 28 98 101 98 96 87 80 78 76 74 74 77 79 81 84 85 87 91 94 95 95 91 90 92 93 94 94 94 96 94
92 65 104 144 216 316 9 2 51 114 124 147 173 158 142 115 112 105 99 95 89 86 85 82 78 75 76 77 82 86 85 88 93 94 94 94 94 96 97 96 93 90 92 91
52 70 61 58 40 54 46 9 1 45 163 162 174 163 163 142 125 117 110 108 103 95 90 90 90 85 81 81 82 87 88 89 94 95 94 93 94 94 92 88 85 84 83 84
27 52 34 34 37 42 27 8 8 19 19 115 135 141 122 118 112 115 119 124 116 107 101 99 98 95 92 93 94 91 90 89 92 94 95 96 94 92 90 89 86 82 74 68
353 43 58 142 46 48 325 328 338 350 336 205 179 153 135 116 105 99 105 121 124 112 107 108 106 101 98 97 100 96 95 94 93 93 94 94 94 93 93 96 87 78 68 63
228 72 110 135 116 199 241 1 84 90 31 46 103 103 101 108 97 65 45 100 112 109 111 116 115 109 100 97 95 94 92 93 93 89 88 95 102 101 95 89 81 72 63 58
140 144 120 124 155 161 192 287 284 111 20 23 114 112 109 116 98 63 44 68 90 98 108 111 112 110 102 96 97 96 91 91 93 94 96 102 109 107 99 92 81 65 61 49
39 69 104 117 155 215 236 330 1 98 315 255 145 142 138 114 102 107 79 82 89 94 101 107 107 103 96 87 89 93 90 87 88 93 99 104 108 109 103 94 75 58 65 55
5 19 53 93 186 276 326 320 10 197 243 197 160 159 149 132 124 118 104 93 97 101 104 106 103 97 92 87 88 89 88 86 94 102 101 98 98 101 99 85 71 75 72 55
2 25 25 59 127 262 330 357 83 240 334 108 137 144 129 113 113 114 111 109 109 108 106 106 103 95 85 83 89 87 80 86 108 109 104 101 97 97 103 97 84 73 68 51
211 197 204 201 222 259 308 328 344 42 70 88 131 131 132 133 134 127 122 117 112 111 107 104 105 96 77 71 88 91 88 122 119 112 108 104 97 93 107 114 106 78 59 44
305 23 177 286 279 308 342 11 16 19 39 55 123 137 139 139 138 132 127 121 115 110 107 105 97 86 65 54 69 92 111 127 128 127 124 119 116 112 107 115 136 147 187 321
268 334 5 292 302 334 344 9 356 359 41 79 98 121 133 134 135 134 130 125 119 110 100 95 94 87 72 67 68 74 103 124 129 134 137 137 147 168 197 239 237 235 240 229
228 193 187 240 262 257 286 323 334 338 0 126 123 115 122 131 132 131 127 124 119 111 102 98 94 93 85 83 73 64 94 126 134 139 159 184 203 220 233 276 307 284 273 286
Height
1485 1492 1497 1496 1495 1497 1497 1499 1501 1497 1490 1490 1490 1488 1480 1477 1477 1478 1478 1479 1480 1477 1477 1482 1486 1489 1492 1496 1499 1503 1507 1510 1513 1515 1518 1521 1523 1526 1528 1530 1533 1535 1538 1540
1490 1493 1487 1487 1490 1493 1496 1500 1500 1495 1489 1488 1489 1487 1477 1473 1473 1472 1473 1473 1474 1473 1475 1478 1481 1484 1486 1489 1494 1499 1503 1506 1509 1512 1515 1519 1521 1523 1525 1527 1529 1531 1533 1536
1487 1484 1481 1486 1490 1494 1496 1499 1497 1497 1493 1489 1490 1491 1479 1470 1470 1470 1470 1469 1469 1469 1468 1470 1474 1478 1482 1484 1488 1493 1497 1502 1506 1509 1512 1515 1518 1520 1523 1525 1526 1527 1530 1533
1482 1478 1480 1484 1487 1490 1497 1490 1492 1493 1500 1506 1498 1510 1487 1474 1472 1468 1468 1467 1465 1463 1464 1466 1469 1473 1477 1480 1485 1490 1495 1499 1503 1506 1508 1510 1513 1517 1520 1522 1524 1525 1527 1530
1478 1475 1478 1482 1482 1484 1487 1484 1488 1491 1497 1505 1502 1508 1496 1480 1476 1470 1467 1466 1463 1460 1460 1462 1466 1470 1474 1479 1483 1488 1493 1496 1500 1504 1507 1509 1511 1514 1518 1520 1522 1523 1526 1528
1470 1468 1470 1472 1472 1476 1479 1485 1492 1500 1506 1514 1502 1509 1501 1489 1482 1476 1470 1467 1462 1458 1459 1461 1465 1469 1473 1477 1482 1487 1491 1495 1499 1503 1506 1508 1510 1513 1516 1518 1520 1522 1525 1527
1472 1469 1467 1467 1472 1474 1480 1496 1513 1511 1520 1515 1495 1500 1498 1483 1480 1478 1475 1470 1464 1461 1461 1463 1467 1470 1474 1478 1483 1487 1490 1495 1499 1502 1506 1507 1508 1512 1514 1517 1519 1521 1524 1527
1481 1481 1466 1464 1468 1476 1481 1490 1509 1516 1516 1508 1496 1499 1491 1482 1480 1479 1476 1473 1469 1467 1467 1469 1472 1474 1478 1481 1485 1488 1492 1495 1498 1501 1504 1508 1510 1512 1514 1517 1520 1522 1524 1526
1478 1477 1459 1457 1457 1464 1477 1484 1481 1498 1503 1507 1502 1494 1487 1482 1480 1480 1479 1476 1474 1473 1474 1475 1477 1479 1482 1485 1488 1491 1494 1496 1498 1501 1503 1507 1511 1513 1515 1518 1521 1523 1525 1527
1465 1471 1460 1455 1456 1460 1464 1472 1489 1499 1510 1511 1498 1496 1495 1487 1483 1482 1481 1481 1480 1479 1479 1480 1482 1484 1486 1488 1491 1494 1496 1497 1500 1503 1506 1509 1512 1514 1517 1520 1522 1524 1527 1528
1461 1468 1464 1459 1462 1464 1468 1473 1481 1492 1493 1503 1507 1502 1487 1485 1483 1483 1484 1484 1484 1484 1484 1485 1486 1488 1490 1492 1495 1497 1499 1501 1503 1506 1508 1511 1514 1517 1519 1521 1523 1526 1527 1528
1464 1468 1472 1464 1458 1457 1460 1467 1477 1486 1491 1493 1497 1500 1484 1482 1482 1484 1486 1487 1488 1488 1489 1490 1491 1492 1494 1495 1497 1499 1501 1503 1506 1508 1511 1513 1516 1519 1521 1523 1525 1527 1528 1529
1465 1471 1477 1474 1472 1466 1464 1465 1471 1478 1488 1495 1497 1497 1484 1482 1484 1486 1488 1490 1492 1492 1493 1494 1495 1496 1497 1499 1500 1502 1503 1505 1508 1511 1513 1515 1518 1520 1522 1524 1526 1527 1528 1528
1465 1475 1480 1484 1481 1474 1471 1469 1469 1474 1486 1489 1488 1489 1486 1485 1486 1489 1491 1493 1495 1496 1497 1498 1499 1500 1501 1502 1503 1505 1506 1508 1510 1513 1515 1517 1519 1522 1524 1525 1526 1527 1527 1527
1469 1477 1475 1475 1472 1472 1475 1476 1472 1472 1475 1481 1483 1484 1485 1485 1488 1491 1493 1495 1497 1499 1500 1501 1502 1503 1504 1505 1507 1508 1509 1511 1513 1515 1517 1519 1521 1523 1524 1525 1526 1526 1526 1526
1476 1479 1477 1477 1474 1474 1477 1477 1476 1477 1476 1477 1479 1483 1483 1485 1486 1491 1494 1497 1499 1501 1502 1503 1504 1505 1507 1508 1510 1511 1512 1513 1515 1517 1519 1521 1523 1524 1525 1525 1526 1526 1525 1525
1483 1483 1485 1486 1480 1480 1487 1483 1481 1481 1481 1479 1481 1483 1483 1485 1488 1492 1495 1497 1499 1501 1503 1505 1506 1508 1509 1510 1512 1513 1514 1515 1517 1519 1521 1522 1523 1524 1525 1526 1526 1525 1524 1523
1485 1486 1490 1490 1487 1497 1489 1481 1481 1483 1483 1481 1481 1483 1484 1487 1491 1493 1496 1498 1500 1501 1503 1505 1507 1509 1511 1512 1514 1515 1516 1517 1519 1520 1522 1523 1524 1525 1526 1526 1526 1525 1523 1522
1484 1487 1492 1494 1492 1490 1487 1483 1483 1485 1487 1485 1485 1486 1489 1490 1492 1496 1497 1498 1500 1502 1504 1506 1508 1510 1512 1514 1515 1517 1518 1519 1520 1522 1523 1525 1526 1527 1527 1526 1525 1524 1522 1521
1487 1488 1494 1495 1494 1497 1490 1484 1482 1486 1490 1486 1486 1488 1490 1492 1496 1499 1499 1500 1501 1503 1506 1508 1510 1512 1514 1516 1517 1519 1520 1521 1523 1524 1525 1527 1527 1527 1527 1526 1525 1523 1522 1520
1496 1497 1498 1498 1496 1493 1489 1485 1485 1494 1491 1486 1487 1489 1491 1494 1497 1499 1500 1502 1504 1506 1508 1510 1512 1514 1516 1518 1519 1521 1522 1524 1525 1526 1527 1528 1528 1528 1527 1526 1525 1523 1521 1520
1501 1502 1501 1501 1500 1500 1490 1487 1490 1490 1486 1487 1488 1491 1493 1495 1497 1500 1502 1504 1506 1507 1510 1512 1514 1516 1518 1520 1522 1523 1524 1526 1527 1528 1529 1529 1529 1528 1527 1526 1525 1523 1521 1520
1501 1502 1501 1501 1502 1495 1492 1491 1490 1489 1489 1490 1491 1492 1494 1496 1498 1501 1503 1505 1508 1510 1512 1515 1517 1519 1521 1523 1524 1525 1526 1528 1529 1529 1529 1530 1529 1528 1528 1526 1525 1523 1521 1519
1500 1498 1499 1497 1495 1493 1492 1491 1491 1491 1491 1492 1492 1493 1495 1496 1499 1501 1504 1507 1510 1512 1515 1518 1520 1522 1524 1525 1527 1527 1528 1529 1530 1530 1530 1530 1530 1529 1528 1527 1525 1523 1521 1519
1500 1498 1498 1497 1495 1493 1492 1492 1492 1492 1492 1492 1492 1494 1495 1497 1499 1502 1505 1509 1512 1515 1518 1520 1522 1524 1526 1527 1529 1529 1530 1530 1530 1530 1530 1530 1530 1529 1528 1527 1525 1523 1521 1519
1497 1497 1498 1498 1495 1495 1493 1492 1491 1491 1490 1491 1492 1493 1496 1498 1500 1504 1508 1512 1515 1518 1521 1523 1525 1527 1528 1529 1530 1531 1531 1531 1531 1531 1531 1530 1530 1529 1528 1526 1525 1523 1521 1519